This is the latest recevied weather packets stored in our database for station/object KB9ZI. If no packets are shown the sender has not sent any weather packets the latest 10 day(s).
| Time | Temp. | Humidity | Pressure | Rain* | Wind** | Luminosity | Snow |
|---|---|---|---|---|---|---|---|
| 1778175294 | 12.78° C | 37% | 1011.6 hPa | 0 mm | - | - | - |
| 1778175173 | 12.78° C | 39% | 1011.6 hPa | 0 mm | - | - | - |
| 1778175061 | 12.78° C | 40% | 1011.6 hPa | 0 mm | - | - | - |
| 1778174995 | 12.22° C | 35% | 1011.6 hPa | 0 mm | - | - | - |
| 1778174813 | 12.78° C | 34% | 1011.6 hPa | 0 mm | - | - | - |
| 1778174693 | 12.78° C | 41% | 1011.6 hPa | 0 mm | - | - | - |
| 1778174574 | 12.22° C | 36% | 1011.8 hPa | 0 mm | - | - | - |
| 1778174462 | 12.22° C | 37% | 1011.7 hPa | 0 mm | - | - | - |
| 1778174333 | 12.22° C | 33% | 1011.8 hPa | 0 mm | - | - | - |
| 1778174214 | 12.78° C | 37% | 1011.9 hPa | 0 mm | - | - | - |
| 1778174094 | 12.78° C | 35% | 1011.8 hPa | 0 mm | - | - | - |
| 1778173974 | 12.78° C | 37% | 1011.7 hPa | 0 mm | - | - | - |
| 1778173917 | 12.22° C | 38% | 1011.8 hPa | 0 mm | - | - | - |
| 1778173733 | 12.22° C | 39% | 1011.8 hPa | 0 mm | - | - | - |
| 1778173613 | 12.22° C | 37% | 1011.9 hPa | 0 mm | - | - | - |
| 1778173493 | 12.22° C | 38% | 1011.9 hPa | 0 mm | - | - | - |
| 1778173421 | 11.67° C | 37% | 1011.9 hPa | 0 mm | - | - | - |
| 1778173387 | 11.67° C | 35% | 1011.8 hPa | 0 mm | - | - | - |
| 1778173134 | 11.67° C | 36% | 1011.9 hPa | 0 mm | - | - | - |
| 1778173013 | 11.67° C | 39% | 1011.9 hPa | 0 mm | - | - | - |
| 1778172958 | 11.67° C | 37% | 1012 hPa | 0 mm | - | - | - |
| 1778172773 | 11.67° C | 40% | 1012 hPa | 0 mm | - | - | - |
| 1778172654 | 11.67° C | 42% | 1011.9 hPa | 0 mm | - | - | - |
| 1778172534 | 10.56° C | 41% | 1012 hPa | 0 mm | - | - | - |
| 1778172415 | 10.56° C | 41% | 1012 hPa | 0 mm | - | - | - |
* Rain latest hour (hover to see other rain measurements)
** Current wind speed in m/s (hover to see current wind gust speed)